{"data":{"norad_id":50167,"epoch":"2026-09-19T22:44:20.956128Z","epoch_age_seconds":76876,"freshness":"FRESH","line1":"1 50167U 21125M   26262.94746477  .00001468  00000+0  53005-4 0  9991","line2":"2 50167  53.1587  94.9913 0001188  86.0294 274.0844 15.35386463265941","mean_motion":15.35386463,"eccentricity":0.0001188,"inclination_deg":53.1587,"raan_deg":94.9913,"arg_perigee_deg":86.0294,"mean_anomaly_deg":274.0844,"bstar":5.3005e-5,"rev_number":26594,"period_min":93.787462290528,"perigee_km":458.96049049973,"apogee_km":460.58517787633,"semimajor_km":6837.909834188,"source":"CELESTRAK","updated_at":"2026-09-20T09:00:39.414226Z"}}